Preview of NWS' New Version of Forecast
This preview is not operational and should not be used for support decisions.

Regional Weather Roundup (RWR)

Issued by National Weather Service (NWS)

                            
000
ASUS42 KTBW 172316
RWRFL 
FLORIDA REGIONAL WEATHER ROUNDUP
NATIONAL WEATHER SERVICE TAMPA BAY RUSKIN FL
700 PM EDT WED APR 17 2019

NOTE: "FAIR" INDICATES FEW OR NO CLOUDS BELOW 12,000 FEET WITH NO
SIGNIFICANT WEATHER AND/OR OBSTRUCTIONS TO VISIBILITY.

FLZ001>010-012>015-112-114-115-180000-
PANHANDLE FLORIDA
  
CITY           SKY/WX    TMP DP  RH WIND       PRES   REMARKS
PENSACOLA      FAIR      74  68  81 SE8       30.02S                  
PENSACOLA NAS  PTSUNNY   73  68  84 SE8       30.02S                  
MILTON NAS     PTSUNNY   75  61  61 SE12      30.03R                  
CRESTVIEW        N/A     76  62  62 VRB6      30.04S                  
DUKE FIELD     FAIR      74  65  71 S12       30.03S                  
VALPARAISO     CLOUDY    73  67  80 S8        30.03S                  
MARY ESTHER    MOSUNNY   73  66  81 SE9       30.02S                  
PANAMA CITY    FAIR      75  63  66 S10       30.04R                  
TYNDALL AFB    FAIR      74  64  69 S13       30.03S                  
APALACHICOLA   FAIR      73  64  73 SE7       30.04F                  

STATION/POSITION SKY/WX   TEMP    WIND        PRES    WAVE   SWELL
                          AIR SEA DIR/SP/G            HT/PER HT/PER
                          (F)     (DEG/KT/KT) (MB)    (FT/S) (FT/S)
30.1N   87.6W                                 1016.7    2/ 4   2/ 4
29.2N   88.2W                      90/ 10/ 12 1015.9
PANAMA CITY BEAC           71 72  160/ 11/ 12 1017.6S
TOWER C          NOT AVBL

$$
FLZ011-016>038-118-127-128-134-139-239-180000-
NORTH FLORIDA
  
CITY           SKY/WX    TMP DP  RH WIND       PRES   REMARKS
MARIANNA       FAIR      82  58  43 S8        30.01S                  
TALLAHASSEE    CLOUDY    80  57  45 S8        30.04R                  
PERRY          FAIR      76  61  59 SW7       30.04F                  
LIVE OAK       SUNNY     82  57  42 VRB3      30.01F                  
CROSS CITY     FAIR      76  63  63 W7        30.03S                  
LAKE CITY      PTSUNNY   79  59  50 SE5       30.03F                  
GAINESVILLE    FAIR      82  61  48 E7        30.05F                  
PALATKA        FAIR      75  64  69 E12       30.05F                  
MAYPORT NAS    PTSUNNY   73  64  73 E8        30.07F                  
JACKSONVILLE   PTSUNNY   74  61  63 E12       30.05F                  
JAX CECIL      MOSUNNY   79  63  57 S13       30.05F                  
FERNANDINA BEA FAIR      72  64  76 SE7       30.08S                  
ST AUGUSTINE   FAIR      74  65  73 E10       30.08F                  
PALM COAST     MOSUNNY   75  61  60 SE6       30.07S                  

STATION/POSITION SKY/WX   TEMP    WIND        PRES    WAVE   SWELL
                          AIR SEA DIR/SP/G            HT/PER HT/PER
                          (F)     (DEG/KT/KT) (MB)    (FT/S) (FT/S)
SHELL POINT      NOT AVBL
KEATON BEACH               74     290/  5/  6 1017.1F
CEDAR KEY                  74     310/  5/  8 1016.8F
FERNANDINA                 74 69  100/  4/  7 1019.2F
30.7N   81.3W                 69                N/A     2/ 8
MAYPORT                    73 68  110/  6/  8 1018.6F
31.4N   80.9W              69 69  120/  8/  8 1018.6F   2/ 8   2/ 8
ST AUGUSTINE               73 72   90/  6/  7 1018.3F

$$
FLZ040-043>046-052-053-057-058-063-144-180000-
INTERIOR CENTRAL FLORIDA
  
CITY           SKY/WX    TMP DP  RH WIND       PRES   REMARKS
OCALA          FAIR      81  60  48 SE7       30.03F                  
LEESBURG       FAIR      79  59  50 E12       30.04F                  
SANFORD        FAIR      77  61  57 E14       30.05S                  
ORLANDO EXEC   FAIR      79  57  46 SE14      30.05S                  
ORLANDO INTL   PTSUNNY   78  57  48 SE13      30.05S                  
KISSIMMEE      FAIR      79  59  50 E14       30.06S                  
WINTER HAVEN   FAIR      80  58  46 E15       30.05S                  
LAKELAND       MOSUNNY   82  57  42 E12       30.04R                  
BARTOW         FAIR      79  59  50 E7        30.03S                  
SEBRING        FAIR      80  61  52 E12       30.04S                  
OKEECHOBEE     MOCLDY    75  61  60 E8        30.04R                  

$$
FLZ041-047-054-059-064-141-147-180000-
EAST CENTRAL FLORIDA
  
CITY           SKY/WX    TMP DP  RH WIND       PRES   REMARKS
ORMOND BEACH   MOSUNNY   77  61  57 SE8       30.06F                  
DAYTONA BEACH  CLOUDY    76  64  66 VRB6      30.06F                  
DELAND         FAIR      77  61  57 E9        30.05S                  
NEW SMYRNA BEA MOSUNNY   77  63  61 SE6       30.08S                  
JFK SPACE CTR  MOCLDY    76  62  61 SE8       30.05F                  
TITUSVILLE     PTCLDY    82  59  44 SE9       30.07S                  
CAPE CANAVERAL FAIR      76  59  54 SE9       30.05S                  
PATRICK AFB    FAIR      76  62  61 E12       30.05F                  
MELBOURNE      FAIR      77  61  57 E12       30.06S                  
VERO BEACH     FAIR      76  61  59 E10       30.05S                  
FT PIERCE      MOCLDY    76  61  59 E13       30.04S                  
STUART         PTCLDY    77  59  53 SE12      30.05S                  

STATION/POSITION SKY/WX   TEMP    WIND        PRES    WAVE   SWELL
                          AIR SEA DIR/SP/G            HT/PER HT/PER
                          (F)     (DEG/KT/KT) (MB)    (FT/S) (FT/S)
28.5N   80.2W              76     120/ 10/ 14 1018.2F   3/ 9   3/ 9
28.9N   78.5W              74 77   90/ 12/ 16 1018.9S   4/ 8   3/ 8
TRIDENT PIER               76 78   90/  8/ 11 1019.2F
28.4N   80.5W                 77                N/A     2/ 3
27.5N   80.2W                 76                N/A     3/ 4

$$
FLZ050-056-061-142-242-148-248-149-249-151-251-155-255-
160-260-180000-
WEST CENTRAL FLORIDA
  
CITY           SKY/WX    TMP DP  RH WIND       PRES   REMARKS
CRYSTAL RIVER  PTSUNNY   81  59  47 SE3       30.02F                  
INVERNESS      FAIR      81  61  50 SE5       30.03S                  
BROOKSVILLE    FAIR      80  58  46 E6        30.03S                  
CLEARWATER AIR FAIR      75  61  60 NW8       30.01F                  
ST PETE CLEARW FAIR      78  62  57 N10       30.00F                  
TAMPA INTL     PTSUNNY   84  57  39 E6        30.01F                  
TAMPA EXEC     FAIR      81  59  47 E6        30.02S                  
PLANT CITY     PTSUNNY   82  57  42 E6        30.04S                  
MACDILL AFB    PTSUNNY   82  59  44 SE8       30.00F                  
PETER O KNIGHT PTSUNNY   82  61  47 E10       30.01F                  
ST PETERSBURG  PTSUNNY   81  68  64 E9        29.99S                  
SARASOTA       PTSUNNY   79  65  62 W8        29.99F                  
VENICE         FAIR      79  66  65 NW10      30.02S                  

STATION/POSITION SKY/WX   TEMP    WIND        PRES    WAVE   SWELL
                          AIR SEA DIR/SP/G            HT/PER HT/PER
                          (F)     (DEG/KT/KT) (MB)    (FT/S) (FT/S)
27.3N   84.2W                 76                N/A     2/ 5
CLEARWATER BEACH           76 78  330/  8/  9 1016.5F
MIDDLE TAMPA BAY           81     300/  2/  5 1016.3S
VENICE                     76 77  310/  9/ 10 1016.1F

$$
FLZ066-069-070-075>078-162-262-165-265-180000-
SOUTHWEST FLORIDA AND KEYS
  
CITY           SKY/WX    TMP DP  RH WIND       PRES   REMARKS
PUNTA GORDA    FAIR      80  59  48 E8        30.01F                  
FT MYERS       FAIR      83  60  45 NE8       29.99S                  
SOUTHWEST INTL PTSUNNY   82  61  48 NE14      30.00R                  
NAPLES         FAIR      79  68  69 W6        29.99S                  
MARCO ISLAND   FAIR      82  65  56 NW5       30.00S                  
IMMOKALEE      FAIR      81  63  54 E9        29.99R                  
MARATHON       FAIR      82  61  48 E10G20    29.99S                  
KEY WEST NAS   FAIR      80  65  59 E17       29.99S                  
KEY WEST INTL  FAIR      79  65  62 E17       29.99F                  

STATION/POSITION SKY/WX   TEMP    WIND        PRES    WAVE   SWELL
                          AIR SEA DIR/SP/G            HT/PER HT/PER
                          (F)     (DEG/KT/KT) (MB)    (FT/S) (FT/S)
NAPLES                     79 82  250/  5/  6 1015.6F
DRY TORTUGAS               78     120/ 14/ 15 1015.7R
SAND KEY                   76                 1015.4F
SOMBRERO KEY               77                 1014.9S

$$
FLZ067-068-071>074-168-172>174-180000-
SOUTHEAST FLORIDA 
  
CITY           SKY/WX    TMP DP  RH WIND       PRES   REMARKS
W PALM BEACH   MOCLDY    77  61  57 E13       30.03S                  
BOCA RATON     PTCLDY    79  63  57 E12       30.02S                  
FT LAUDER-EXEC FAIR      78  61  55 E14       30.02R                  
FT LAUDERDALE  MOCLDY    77  61  57 E14       30.01S                  
POMPANO BEACH  MOCLDY    78  62  57 E13       30.02S                  
PEMBROKE PINES MOCLDY    78  61  55 E14       30.03S                  
OPA LOCKA      FAIR      78  60  53 E13       30.02S                  
MIAMI          FAIR      78  61  55 E16       30.02S                  
WEST KENDALL   FAIR      78  61  55 E12       30.01S                  
HOMESTEAD      FAIR      77  63  61 E12       30.01S                  

STATION/POSITION SKY/WX   TEMP    WIND        PRES    WAVE   SWELL
                          AIR SEA DIR/SP/G            HT/PER HT/PER
                          (F)     (DEG/KT/KT) (MB)    (FT/S) (FT/S)
PORT EVERGLADES            77      70/  9/ 14 1016.7
VIRGINIA KEY               77 82   60/ 11/ 14 1015.8F
LAKE WORTH                 76 79   80/ 11/ 14 1017.8F
SETTLEMENT POINT           76      80/ 16/ 18 1017.2F

$$